Weather History for EHVK - November, 2013

Change the Weather History Date:

Saturday, November 16, 2013

  Actual Average Record
Temperature  
Mean Temperature 36 °F -  
Max Temperature 39 °F 44 °F 104 °F (1996)
Min Temperature 32 °F 33 °F 23 °F (1999)
Degree Days  
Heating Degree Days 30    
Moisture  
Dew Point 37 °F    
Average Humidity 100    
Maximum Humidity 100    
Minimum Humidity 93    
Precipitation  
Precipitation 0.00 in - - ()
Sea Level Pressure  
Sea Level Pressure 30.44 in    
Wind  
Wind Speed 2 mph ()    
Max Wind Speed 6 mph    
Max Gust Speed -    
Visibility 0.6 miles    
Events Fog , Snow    
Averages and records for this station are not official NWS values.
T = Trace of Precipitation, MM = Missing Value Source: Averaged Metar Reports

Daily Weather History Graph

Daily Weather History Graph

Search for Another Location

Airport or City:

Trip Planner

Search our weather history database for the weather conditions in past years. The results will help you decide how hot, cold, wet, or windy it might be!

Date:

Astronomy

Nov. 16, 2013 Rise Set
Actual Time 7:57 AM CET 4:45 PM CET
Civil Twilight 7:20 AM CET 5:23 PM CET
Nautical Twilight 6:39 AM CET 6:03 PM CET
Astronomical Twilight 5:59 AM CET 6:43 PM CET
Moon 4:16 PM CET (11/16) 6:30 AM CET (11/16)
Length of Visible Light 10h 02m
Length of Day
8h 48m
Waxing Gibbous, 99% of the Moon is Illuminated
Nov 16
Waxing Gibbous
Nov 17
Full
Nov 25
Last Quarter
Dec 3
New
Dec 9
First Quarter

Hourly Weather History & Observations

Time (CET) Temp. Windchill Dew Point Humidity Pressure Visibility Wind Dir Wind Speed Gust Speed Precip Events Conditions
12:07 AM 33.8 °F - 33.8 °F 100% 30.48 in 0.3 mi North 2.3 mph - N/A Fog Fog
12:20 AM 32.0 °F - 32.0 °F 100% 30.48 in 0.2 mi ESE 1.2 mph - N/A Fog Light Freezing Fog
12:25 AM 32.0 °F - 32.0 °F 100% 30.48 in 0.2 mi SE 1.2 mph - N/A Fog Light Freezing Fog
12:55 AM 32.0 °F - 32.0 °F 100% 30.48 in 0.2 mi Calm Calm - N/A Fog Fog
12:56 AM 32.0 °F - 32.0 °F 100% 30.48 in 0.2 mi Calm Calm - N/A Fog Light Freezing Fog
1:25 AM 33.8 °F - 33.8 °F 100% 30.48 in 0.2 mi SSE 2.3 mph - N/A Fog Fog
1:26 AM 33.8 °F - 33.8 °F 100% 30.48 in 0.2 mi SSE 2.3 mph - N/A Fog Fog
1:39 AM 35.6 °F - 35.6 °F 100% 30.48 in 0.3 mi NNE 1.2 mph - N/A Fog Fog
1:55 AM 35.6 °F - 35.6 °F 100% 30.48 in 0.4 mi Calm Calm - N/A Fog Fog
1:59 AM 35.6 °F - 35.6 °F 100% 30.48 in 0.6 mi Calm Calm - N/A   Overcast
2:03 AM 35.6 °F - 35.6 °F 100% 30.48 in 1.0 mi SW 1.2 mph - N/A   Overcast
2:14 AM 35.6 °F - 35.6 °F 100% 30.48 in - SW 1.2 mph - N/A   Overcast
2:25 AM 35.6 °F - 35.6 °F 100% 30.48 in 1.7 mi SSW 1.2 mph - N/A   Mostly Cloudy
2:29 AM 33.8 °F - 33.8 °F 100% 30.48 in - South 1.2 mph - N/A   Scattered Clouds
2:33 AM 33.8 °F - 33.8 °F 100% 30.48 in - SE 1.2 mph - N/A   Mist
2:34 AM 33.8 °F - 33.8 °F 100% 30.48 in 1.5 mi SE 1.2 mph - N/A   Mist
2:41 AM 35.6 °F - 35.6 °F 100% 30.48 in 0.6 mi ENE 2.3 mph - N/A   Mist
2:46 AM 35.6 °F - 35.6 °F 100% 30.48 in 0.6 mi North 2.3 mph - N/A Fog Fog
2:48 AM 33.8 °F - 33.8 °F 100% 30.48 in 0.4 mi North 2.3 mph - N/A Fog Fog
2:55 AM 33.8 °F - 33.8 °F 100% 30.48 in 0.4 mi North 1.2 mph - N/A Fog Fog
3:25 AM 33.8 °F - 33.8 °F 100% 30.48 in 0.1 mi East 2.3 mph - N/A Snow Light Snow Grains
3:47 AM 32.0 °F - 32.0 °F 100% 30.48 in 0.2 mi ENE 2.3 mph - N/A Snow Light Snow Grains
3:55 AM 33.8 °F - 33.8 °F 100% 30.48 in 0.2 mi NE 2.3 mph - N/A Fog Fog
4:25 AM 33.8 °F - 33.8 °F 100% 30.48 in 0.1 mi Calm Calm - N/A Fog Fog
4:55 AM 35.6 °F - 35.6 °F 100% 30.45 in 0.2 mi East 1.2 mph - N/A Fog Fog
5:19 AM 35.6 °F - 35.6 °F 100% 30.48 in 0.3 mi Calm Calm - N/A Fog Fog
5:25 AM 35.6 °F - 35.6 °F 100% 30.48 in - SSE 1.2 mph - N/A Fog Fog
5:29 AM 35.6 °F - 35.6 °F 100% 30.48 in 0.6 mi SE 1.2 mph - N/A Fog Fog
5:34 AM 35.6 °F - 35.6 °F 100% 30.48 in 0.7 mi ESE 1.2 mph - N/A   Overcast
5:38 AM 37.4 °F - 37.4 °F 100% 30.48 in 1.1 mi ESE 1.2 mph - N/A   Overcast
5:51 AM 37.4 °F - 37.4 °F 100% 30.48 in 0.9 mi East 2.3 mph - N/A   Overcast
5:55 AM 37.4 °F - 37.4 °F 100% 30.48 in 0.9 mi East 2.3 mph - N/A   Overcast
6:25 AM 37.4 °F - 37.4 °F 100% 30.48 in 1.1 mi ESE 2.3 mph - N/A   Mist
6:35 AM 37.4 °F - 37.4 °F 100% 30.48 in 1.1 mi ESE 2.3 mph - N/A   Overcast
6:55 AM 37.4 °F - 37.4 °F 100% 30.48 in 0.7 mi SSE 2.3 mph - N/A   Overcast
7:17 AM 37.4 °F - 37.4 °F 100% 30.48 in - SSE 1.2 mph - N/A Fog Fog
7:25 AM 37.4 °F - 37.4 °F 100% 30.48 in - SE 1.2 mph - N/A Fog Fog
7:55 AM 37.4 °F - 37.4 °F 100% 30.48 in 0.4 mi SSE 2.3 mph - N/A Fog Fog
8:25 AM 37.4 °F 34.9 °F 37.4 °F 100% 30.48 in 0.3 mi South 3.5 mph - N/A Fog Fog
8:55 AM 37.4 °F - 37.4 °F 100% 30.48 in 0.2 mi SSW 2.3 mph - N/A Fog Fog
9:25 AM 37.4 °F - 37.4 °F 100% 30.48 in 0.2 mi SSW 2.3 mph - N/A Fog Fog
9:35 AM 37.4 °F - 37.4 °F 100% 30.48 in 0.2 mi South 2.3 mph - N/A Fog Fog
9:55 AM 37.4 °F - 37.4 °F 100% 30.48 in 0.1 mi South 2.3 mph - N/A Fog Fog
10:25 AM 37.4 °F 34.9 °F 37.4 °F 100% 30.48 in 0.1 mi South 3.5 mph - N/A Fog Fog
10:55 AM 37.4 °F - 37.4 °F 100% 30.48 in 0.1 mi South 2.3 mph - N/A Fog Fog
11:25 AM 39.2 °F 37.0 °F 39.2 °F 100% 30.48 in 0.1 mi South 3.5 mph - N/A Fog Fog
11:55 AM 37.4 °F 33.8 °F 37.4 °F 100% 30.48 in 0.1 mi South 4.6 mph - N/A Fog Fog
12:25 PM 39.2 °F 37.0 °F 37.4 °F 93% 30.48 in 0.1 mi South 3.5 mph - N/A Fog Fog
12:55 PM 39.2 °F 35.9 °F 39.2 °F 100% 30.45 in 0.1 mi SSW 4.6 mph - N/A Fog Fog
1:19 PM 39.2 °F 35.9 °F 39.2 °F 100% 30.45 in 0.1 mi South 4.6 mph - N/A Fog Fog
1:25 PM 39.2 °F 35.9 °F 37.4 °F 93% 30.45 in 0.1 mi South 4.6 mph - N/A Fog Fog
1:55 PM 39.2 °F 37.0 °F 39.2 °F 100% 30.45 in 0.1 mi SSW 3.5 mph - N/A Fog Fog
2:25 PM 39.2 °F 37.0 °F 39.2 °F 100% 30.45 in 0.1 mi South 3.5 mph - N/A Fog Fog
2:43 PM 39.2 °F 35.9 °F 39.2 °F 100% 30.42 in 0.1 mi South 4.6 mph - N/A Fog Fog
2:55 PM 39.2 °F 37.0 °F 39.2 °F 100% 30.42 in 0.1 mi South 3.5 mph - N/A Fog Fog
3:25 PM 39.2 °F 35.9 °F 39.2 °F 100% 30.42 in 0.1 mi SW 4.6 mph - N/A Fog Fog
3:55 PM 39.2 °F 37.0 °F 37.4 °F 93% 30.42 in 0.1 mi South 3.5 mph - N/A Fog Fog
4:25 PM 37.4 °F 34.9 °F 37.4 °F 100% 30.42 in 0.1 mi SSW 3.5 mph - N/A Fog Fog
4:55 PM 37.4 °F 34.9 °F 37.4 °F 100% 30.42 in 0.1 mi South 3.5 mph - N/A Fog Fog
5:25 PM 37.4 °F 34.9 °F 37.4 °F 100% 30.42 in 0.1 mi SW 3.5 mph - N/A Fog Fog
5:55 PM 37.4 °F 33.8 °F 37.4 °F 100% 30.42 in 0.1 mi SSW 4.6 mph - N/A Fog Fog
6:25 PM 37.4 °F 34.9 °F 37.4 °F 100% 30.42 in 0.2 mi South 3.5 mph - N/A Fog Fog
6:55 PM 37.4 °F 32.8 °F 37.4 °F 100% 30.39 in 0.2 mi South 5.8 mph - N/A Fog Fog
7:25 PM 37.4 °F 33.8 °F 37.4 °F 100% 30.39 in 0.2 mi South 4.6 mph - N/A Fog Fog
7:44 PM 37.4 °F 32.8 °F 37.4 °F 100% 30.39 in 0.2 mi South 5.8 mph - N/A Fog Fog
7:55 PM 37.4 °F 33.8 °F 37.4 °F 100% 30.39 in 0.3 mi South 4.6 mph - N/A Fog Fog
8:04 PM 37.4 °F 33.8 °F 37.4 °F 100% 30.39 in - SSW 4.6 mph - N/A Fog Fog
8:25 PM 37.4 °F 34.9 °F 37.4 °F 100% 30.39 in 0.3 mi SSW 3.5 mph - N/A Fog Fog
8:33 PM 37.4 °F 33.8 °F 37.4 °F 100% 30.39 in 0.2 mi SSW 4.6 mph - N/A Fog Fog
8:47 PM 37.4 °F 34.9 °F 37.4 °F 100% 30.39 in 0.2 mi South 3.5 mph - N/A Fog Fog
8:55 PM 37.4 °F 34.9 °F 37.4 °F 100% 30.39 in 0.3 mi South 3.5 mph - N/A Fog Fog
9:04 PM 37.4 °F 34.9 °F 37.4 °F 100% 30.39 in 0.4 mi South 3.5 mph - N/A Fog Fog
9:25 PM 37.4 °F - 37.4 °F 100% 30.39 in 1.1 mi SSW 2.3 mph - N/A   Overcast
9:38 PM 37.4 °F - 37.4 °F 100% 30.39 in 1.3 mi South 2.3 mph - N/A   Mostly Cloudy
9:48 PM 37.4 °F 34.9 °F 37.4 °F 100% 30.39 in 1.6 mi South 3.5 mph - N/A   Overcast
9:55 PM 37.4 °F 34.9 °F 37.4 °F 100% 30.39 in 1.7 mi South 3.5 mph - N/A   Overcast
9:56 PM 37.4 °F 34.9 °F 37.4 °F 100% 30.39 in 1.7 mi South 3.5 mph - N/A   Overcast
10:06 PM 37.4 °F 34.9 °F 37.4 °F 100% 30.39 in 1.7 mi South 3.5 mph - N/A   Overcast
10:07 PM 37.4 °F 34.9 °F 37.4 °F 100% 30.39 in 1.7 mi South 3.5 mph - N/A   Overcast
10:25 PM 37.4 °F - 37.4 °F 100% 30.36 in 1.7 mi South 2.3 mph - N/A   Mostly Cloudy
10:38 PM 37.4 °F 34.9 °F 37.4 °F 100% 30.36 in 1.5 mi South 3.5 mph - N/A   Overcast
10:42 PM 37.4 °F 34.9 °F 37.4 °F 100% 30.36 in 1.4 mi South 3.5 mph - N/A   Overcast
10:55 PM 37.4 °F 34.9 °F 37.4 °F 100% 30.36 in 1.4 mi South 3.5 mph - N/A   Overcast
11:00 PM 37.4 °F 33.8 °F 37.4 °F 100% 30.36 in 1.5 mi South 4.6 mph - N/A   Overcast
11:04 PM 37.4 °F 33.8 °F 37.4 °F 100% 30.36 in 1.6 mi South 4.6 mph - N/A   Overcast
11:25 PM 37.4 °F 33.8 °F 37.4 °F 100% 30.36 in 1.9 mi South 4.6 mph - N/A   Overcast
11:29 PM 37.4 °F 33.8 °F 37.4 °F 100% 30.36 in 1.9 mi South 4.6 mph - N/A   Overcast
11:55 PM 37.4 °F 33.8 °F 37.4 °F 100% 30.36 in 1.8 mi South 4.6 mph - N/A   Overcast